FALCON 9 DEB, 48608

Orbit data source: Space-Track

FALCON 9 DEB, 48608 is space debris in LEO originally from a launch on Sat, 15 May 2021 UTC launched from the Air Force Eastern Test Range (AFETR). Debris objects in space refer to the collection of defunct objects orbiting the Earth. Examples of debris include non-operational satellites, rocket bodies, and fragments generated from explosions, collisions, or faulty payload assembly.

Loading next visibility...
Identifier
48608, 2021-041BH
Orbit
LEO
Country
Flag of USUS
Related business
Manufacturer
SpaceX/Seattle
Mission
Spacecraft
Bus & Motor
Unknown
Mass
~100 kg wet, ~100 kg dry
Launch date (UTC)
2021-05-15 (5 years ago)
Launch vehicle
Unknown
Launch site
Air Force Eastern Test Range (AFETR)
Object type
Payload
Rocket body
Debris
Shape & HBR
Cyl, 3.5 m
Radar Cross Section
0.110 m², Medium (>0.1 m² and < 1m²)

Expand to show TLE details & history
Last TLE update: 2 days ago

TLE from 2 days ago
0 FALCON 9 DEB
1 48608U 21041BH  26171.33427500  .00002741  00000-0  16673-3 0  9995
2 48608  53.0287  79.8380 0010826 139.7265 220.4531 15.13768523279903
Epoch: 2026-06-20T08:01Z
TLE epoch observation values (Epoch: 2026-06-20T08:01:21.359Z)
Latitude
-0.00002°
Longitude
50.9486°
Altitude
531.289 km
Speed
7.595 km/s
True Right ascension
05h 19m 21s
True Declination
0° 00' 00"
Sunlit
Object was in daylight at epoch
Visualization orbit readout
Latitude
Unknown
Longitude
Unknown
Altitude
Unknown
Speed
Unknown
Apparent Right ascension
Unknown
Apparent Declination
Unknown
Sunlit
N/A
Visualization observer readout
Local Sidereal Time
02:13:24
Azimuth
Unknown
Elevation
Unknown
Doppler factor
Unknown
Orbital elements
Apogee altitude
532.469 km
Perigee altitude
517.522 km
Semi-major axis
6,903.132 km
Eccentricity
0.00108
Inclination
53.0287°
RAAN
79.838°
Arg. of periapsis
139.7265°
True anomaly
220.37269°
Mean anomaly
220.4531°
Eccentric anomaly
220.41289°
Mean motion
3.7842 °/min
Orbital period
95.13 mins
BSTAR
0.00016673
Loading maneuver chart data...
Computing Atmospheric mass density...
Loading historical data...
Loading historical data...
Loading historical data...
Loading historical data...
Loading historical data...
Loading historical data...
Loading historical data...

Documentation

Showing up to 5 results
|